Regional Weather Roundup
Issued by NWS Sterling, VA

Home | Current Version | Previous Version | Graphics & Text | Print | Product List | Glossary On
Versions: 1 2 3 4 5 6 7 8 9 10 11 12 13 14 15 16 17 18 19 20 21 22 23 24 25 26 27 28 29 30 31 32 33 34 35 36 37 38 39 40 41 42 43 44 45 46 47 48 49 50
000
ASUS41 KLWX 281610
RWRLWX

REGIONAL WEATHER ROUNDUP
NATIONAL WEATHER SERVICE BALTIMORE MD/WASHINGTON DC
1200 PM EDT SAT MAY 28 2016

Note: "FAIR" indicates few or no clouds below 12,000 feet
with no significant weather and/or obstructions to visibility.
 TC=TEMPERATURE CELSIUS

 * =Non NWS site. Station does not report precipitation (e.g. rain,
    snow, etc.), thunder, or fog.

DCZ001-MDZ009-015-VAZ040>042-051-053>054-281700-
WASHINGTON METRO

CITY           SKY/WX    TMP DP  RH WIND       PRES   REMARKS
WASHINGTON NAT FAIR      81  68  64 S9        30.16S
DULLES         FAIR      84  66  54 SW8       30.16S
ANDREWS AFB    SUNNY     84  67  56 VRB5      30.16S
FT BELVOIR     FAIR      83  66  57 S6        30.17R
QUANTICO       FAIR      79  69  71 S7        30.18R
COLLEGE PARK*  FAIR      82  64  54 SW6       30.16S
LEESBURG*      FAIR      86  72  62 S9G16     30.17S HX  92
MANASSAS*      SUNNY     84  70  61 S7        30.16S

$$

MDZ006>007-011-014-281700-
BALTIMORE METRO

CITY           SKY/WX    TMP DP  RH WIND       PRES   REMARKS
BWI AIRPORT    MOSUNNY   84  66  54 VRB5      30.15S
MD SCIENCE CTR   N/A     81  66  60 MISG      30.16S
MARTIN STATE   SUNNY     79  68  69 SE8       30.18S
ANNAPOLIS      SUNNY     74  65  73 SE13      30.17R
FORT MEADE*    SUNNY     84  68  58 CALM      30.18S

$$

MDZ012-015-019>023-281700-
MARYLAND EASTERN SHORE

CITY           SKY/WX    TMP DP  RH WIND       PRES   REMARKS
OCEAN CITY     SUNNY     72  64  76 S10G18    30.20F
SALISBURY      SUNNY     82  63  52 VRB6      30.19S
BAY BRIDGE AP* SUNNY     79  63  57 S13       30.17S
CAMBRIDGE*     SUNNY     81  64  57 SW6       30.19R
EASTON*        SUNNY     84  70  61 SW6       30.21S

$$

MDZ017>025-281700-
SOUTHERN MARYLAND

CITY           SKY/WX    TMP DP  RH WIND       PRES   REMARKS
PATUXENT RIVER SUNNY     76  65  68 SE12      30.18S
ST INIGOES     SUNNY     80  65  59 SE7       30.19R
LEONARDTOWN*   SUNNY     81  63  54 S6        30.20S

$$

MDZ003>005-281700-
NORTH CENTRAL MARYLAND

CITY           SKY/WX    TMP DP  RH WIND       PRES   REMARKS
FREDERICK*     SUNNY     82  72  69 CALM      30.18S
HAGERSTOWN APT SUNNY     83  67  58 SW7       30.16S
WESTMINSTER*   SUNNY     82  75  78 CALM      30.17S

$$

MDZ501>502-281700-
WESTERN MARYLAND

CITY           SKY/WX    TMP DP  RH WIND       PRES   REMARKS
OAKLAND*       NOT AVBL
CUMBERLAND*    SUNNY     81  72  74 S5        30.20F

$$

VAZ025>031-281700-
SHENANDOAH VALLEY

CITY           SKY/WX    TMP DP  RH WIND       PRES   REMARKS
WINCHESTER*    FAIR      84  68  58 SE3       30.17S
FRONT ROYAL*   FAIR      82  70  65 CALM      30.16S
LURAY*         FAIR      86  68  54 CALM      30.17F
NEW MARKET*    FAIR      85  67  54 SW3       30.15F
STAUNTON*      FAIR      81  64  57 CALM      30.21F
WAYNESBORO*    PTSUNNY   80  62  55 CALM      30.21S

$$

WVZ021-048>050-054>055-281700-
EASTERN WEST VIRGINIA PANHANDLE

CITY           SKY/WX    TMP DP  RH WIND       PRES   REMARKS
MARTINSBURG    FAIR      84  67  56 CALM      30.15S
PETERSBURG*    FAIR      85  70  59 SE3       30.17F HX  90

$$

VAZ036>039-050-281700-
CENTRAL FOOTHILLS

CITY           SKY/WX    TMP DP  RH WIND       PRES   REMARKS
CHARLOTTESVILL FAIR      84  67  56 S9        30.17S
CULPEPER*      FAIR      85  71  60 S5        30.17S HX  90
ORANGE*        FAIR      86  68  54 NE6       30.19S
GORDONSVILLE*  FAIR      84  70  61 CALM      30.16F
WARRENTON*     FAIR      85  64  49 S8        30.16F

$$

VAZ055>057-281700-
NORTH AND CENTRAL PIEDMONT

CITY           SKY/WX    TMP DP  RH WIND       PRES   REMARKS
FREDERICKSBRG* FAIR      85  68  55 S6        30.16F
STAFFORD*      FAIR      83  66  55 S8        30.21S

$$

NCZ024-NYZ072-PAZ021-071-VAZ022-071-281700-
OTHER REGIONAL OBSERVATIONS

CITY           SKY/WX    TMP DP  RH WIND       PRES   REMARKS
NEW YORK CITY  SUNNY     87  66  49 VRB3      30.15S
PHILADELPHIA   SUNNY     83  65  54 SW7       30.16S
PITTSBURGH     PTSUNNY   83  62  49 S8        30.15S
ROANOKE        PTSUNNY   80  58  46 SE5       30.22S
RICHMOND       FAIR      82  60  47 CALM      30.19S
RALEIGH        PTSUNNY   80  56  43 VRB3      30.20S

$$

ANZ530>537-281700-
MARINE OBSERVATIONS

STATION/POSITION TIME  TEMP    WIND        PRES
                       AIR SEA DIR/SP/G
                 (UTC) (F)     (DEG/KT/KT) (MB)
THOMAS PT LIGHT  1600   72 66  170/ 12/ 13 1023.1R
BALT KEY BRIDGE  1500   72     110/ 11/ 12 1021.1F
COVE POINT       1500   67     190/ 11/ 13 1022.6S
LEWISETTA        1500   78 67  220/  6/  8 1021.8S
SOLOMONS ISLAND  1500   76 65  150/  3/  5   N/A
PINEY POINT      1500          130/  6/  6   N/A

$$




USA.gov is the U.S. government's official web portal to all federal, state and local government web resources and services.